[[{"header":{"parameterUnit":"m.s-1","parameterCategory":2,"la1":30.2992,"la2":30.254,"lo1":-89.0895,"lo2":-89.0443,"dy":0.0025,"dx":0.0025,"nx":19,"ny":19,"refTime":"2026-05-05T21:00:00:Z","depth":"0","parameterNumber":2,"parameterNumberName":"U-component_of_CURRENTS"},"data":[0,0,0,-0.2305,-0.2306,-0.2324,-0.2324,-0.2336,-0.2336,0,0,0,0,0,0,0,0,0,0,0,-0.229,-0.229,-0.2305,-0.2306,-0.2324,-0.2324,-0.2336,-0.2336,0,0,0,0,0,0,0,0,0,0,0,-0.229,-0.229,-0.229,-0.2306,-0.2324,-0.2324,-0.2336,-0.2323,0,0,0,0,0,0,0,0,0,0,-0.2307,-0.2292,-0.229,-0.229,-0.2306,-0.2324,-0.2324,-0.2323,-0.2324,-0.2327,0,-0.2328,0,-0.2339,-0.2337,-0.2337,0,0,0,-0.2299,-0.229,-0.2303,-0.229,-0.2306,-0.2324,-0.2314,-0.2323,-0.2325,-0.2329,-0.2328,-0.2329,-0.234,-0.2337,-0.2337,-0.2385,-0.2385,0,0,-0.2298,-0.2286,-0.2302,-0.2304,-0.2309,-0.2313,-0.2314,-0.2324,-0.232,-0.2328,-0.233,-0.234,-0.2337,-0.2337,-0.2385,-0.2385,0,0,0,-0.23,-0.2285,-0.2297,-0.2303,-0.2311,-0.2314,-0.2315,-0.2319,-0.2326,-0.233,-0.234,-0.2337,-0.2338,-0.2384,-0.2385,-0.2425,0,0,0,-0.2299,-0.2287,-0.2297,-0.2289,-0.2311,-0.2317,-0.231,-0.2324,-0.2326,-0.234,-0.2337,-0.2338,-0.2384,-0.2385,-0.2423,-0.2431,0,0,0,-0.2289,-0.2286,-0.2289,-0.2288,-0.2301,-0.2317,-0.2323,-0.2325,-0.2333,-0.2337,-0.2338,-0.2384,-0.2384,-0.2421,-0.2429,-0.2383,0,0,0,-0.2275,-0.2287,-0.2288,-0.2314,-0.2301,-0.2347,-0.2323,-0.2345,-0.2352,-0.2338,-0.2384,-0.2385,-0.2421,-0.2427,-0.2383,-0.2142,-0.2126,0,0,-0.2287,-0.2288,-0.2308,-0.2311,-0.2361,-0.2344,-0.2392,-0.2382,-0.2366,-0.2377,-0.2379,-0.2424,-0.2428,-0.2383,-0.2196,-0.2177,0,0,0,-0.2312,-0.2321,-0.234,-0.2366,-0.2397,-0.2416,-0.2415,-0.2414,-0.2418,-0.2376,-0.2431,-0.2433,-0.2402,-0.2257,-0.2243,-0.2144,-0.2389,-0.2389,-0.2389,-0.2279,-0.2323,-0.2361,-0.2409,-0.244,-0.2467,-0.2477,-0.2473,-0.2461,-0.2467,-0.2472,-0.2474,-0.2322,-0.2308,-0.2212,-0.2483,-0.2483,-0.2484,-0.2484,-0.2297,-0.235,-0.2376,-0.2436,-0.2473,-0.2512,-0.2536,-0.2528,-0.2517,-0.2517,-0.2485,-0.2315,-0.2294,-0.2197,-0.2486,-0.2486,-0.2486,-0.2485,-0.2485,-0.2289,-0.234,-0.2357,-0.2448,-0.2499,-0.2548,-0.2529,-0.2575,-0.2541,-0.2532,-0.2314,-0.2309,-0.2212,-0.2497,-0.2497,-0.2496,-0.2496,-0.2496,-0.2496,-0.2323,-0.2347,-0.2354,-0.2479,-0.2472,-0.252,-0.2541,-0.2479,-0.2376,-0.2324,-0.2321,-0.2185,-0.2476,-0.2462,-0.2494,-0.2494,-0.2495,-0.2495,-0.2495,-0.2266,-0.2345,-0.2291,-0.2273,-0.2294,-0.2121,-0.23,-0.2129,-0.213,-0.2015,-0.1925,-0.2187,-0.2134,-0.2142,-0.2119,-0.206,-0.206,-0.206,-0.206,-0.2218,-0.2276,-0.2061,-0.1912,-0.1891,-0.1853,-0.1511,-0.1551,-0.162,-0.1609,-0.1698,-0.1645,-0.1667,-0.1587,-0.1608,-0.1575,-0.1379,-0.1379,-0.1378,-0.2053,-0.2026,-0.1707,-0.1639,-0.1573,-0.14,-0.0946,-0.0814,-0.1127,-0.1354,-0.1617,-0.1646,-0.158,-0.1622,-0.151,-0.1547,-0.1498,0,0]},{"header":{"parameterUnit":"m.s-1","parameterCategory":2,"la1":30.2992,"la2":30.254,"lo1":-89.0895,"lo2":-89.0443,"dy":0.0025,"dx":0.0025,"nx":19,"ny":19,"refTime":"2026-05-05T21:00:00:Z","depth":"0","parameterNumber":3,"parameterNumberName":"V-component_of_CURRENTS"},"data":[0,0,0,-0.0395,-0.0394,-0.0289,-0.0289,-0.0119,-0.0118,0,0,0,0,0,0,0,0,0,0,0,-0.0434,-0.0433,-0.0396,-0.0394,-0.0289,-0.0289,-0.0119,-0.0118,0,0,0,0,0,0,0,0,0,0,0,-0.0434,-0.0433,-0.0433,-0.0393,-0.0289,-0.0289,-0.012,-0.0204,0,0,0,0,0,0,0,0,0,0,-0.0309,-0.0361,-0.0434,-0.0433,-0.0393,-0.0289,-0.0288,-0.0208,-0.0199,-0.0161,0,-0.0155,0,-0.0136,-0.0107,-0.0106,0,0,0,-0.038,-0.0369,-0.0336,-0.0433,-0.0392,-0.029,-0.0332,-0.0203,-0.0192,-0.0148,-0.0152,-0.0146,-0.0133,-0.0106,-0.0105,0.0028,0.0028,0,0,-0.0385,-0.0414,-0.0344,-0.033,-0.0376,-0.0336,-0.0329,-0.0197,-0.0193,-0.0151,-0.0142,-0.013,-0.0105,-0.0103,0.0027,0.0028,0,0,0,-0.0411,-0.0418,-0.0388,-0.0337,-0.0322,-0.0333,-0.0326,-0.0199,-0.0188,-0.014,-0.0128,-0.0104,-0.0102,0.0027,0.0027,-0.0037,0,0,0,-0.0414,-0.0434,-0.0391,-0.0407,-0.0326,-0.0266,-0.0331,-0.0197,-0.0181,-0.0129,-0.0104,-0.01,0.0027,0.0027,-0.0035,-0.0047,0,0,0,-0.0436,-0.0436,-0.0427,-0.0409,-0.0369,-0.0268,-0.0249,-0.0193,-0.0174,-0.0106,-0.01,0.0027,0.0027,-0.0034,-0.0046,0.0052,0,0,0,-0.0464,-0.0471,-0.0428,-0.0431,-0.037,-0.0319,-0.025,-0.0203,-0.0153,-0.0103,0.0027,0.0027,-0.0034,-0.0044,0.0051,0.0148,0.0159,0,0,-0.0491,-0.0475,-0.0477,-0.0436,-0.0415,-0.0331,-0.0285,-0.0194,-0.0126,-0.0012,-0.0009,-0.0036,-0.0045,0.0052,0.018,0.019,0,0,0,-0.0498,-0.0501,-0.0488,-0.0463,-0.0407,-0.034,-0.0249,-0.0188,-0.0087,-0.0094,-0.0006,-0.0009,0.0054,0.0111,0.012,0.0246,0.003,0.003,0.003,-0.0563,-0.0534,-0.0532,-0.0485,-0.0444,-0.0337,-0.0266,-0.0157,-0.0106,-0.0067,-0.0041,0.0017,0.0074,0.0083,0.0209,-0.0024,-0.0024,-0.0025,-0.0025,-0.0611,-0.0562,-0.0562,-0.0554,-0.0471,-0.0417,-0.0257,-0.02,-0.0049,-0.0051,0.0014,0.0065,0.0089,0.022,-0.0028,-0.0028,-0.0027,-0.0027,-0.0027,-0.0647,-0.0581,-0.0635,-0.0581,-0.0529,-0.0428,-0.026,-0.0191,-0.0088,-0.004,0.0115,0.0118,0.0225,0.0015,0.0016,0.0016,0.0016,0.0016,0.0017,-0.0558,-0.059,-0.0549,-0.0564,-0.048,-0.0391,-0.0237,-0.0119,0.0018,0.0087,0.009,0.0273,0.0032,0.002,0.0022,0.0021,0.002,0.002,0.002,-0.0325,-0.0423,-0.0346,-0.0298,-0.0155,-0.0012,0.0044,0.0236,0.0288,0.0369,0.0429,0.0197,0.0254,0.0249,0.0244,0.0305,0.0305,0.0305,0.0305,-0.0117,-0.0187,-0.0015,0.0103,0.0219,0.0242,0.06,0.0702,0.0711,0.0721,0.0615,0.0607,0.059,0.0666,0.0651,0.0655,0.0819,0.082,0.082,0.0178,0.0124,0.0318,0.0281,0.0424,0.055,0.0884,0.1108,0.0993,0.085,0.0773,0.0751,0.0741,0.0704,0.082,0.0789,0.0794,0,0]}],[{"header":{"parameterUnit":"m.s-1","parameterCategory":2,"la1":30.2992,"la2":30.254,"lo1":-89.0895,"lo2":-89.0443,"dy":0.0025,"dx":0.0025,"nx":19,"ny":19,"refTime":"2026-05-05T21:00:00:Z","depth":"2","parameterNumber":2,"parameterNumberName":"U-component_of_CURRENTS"},"data":[0,0,0,-0.2085,-0.2085,-0.2115,-0.2116,-0.2138,-0.2138,0,0,0,0,0,0,0,0,0,0,0,-0.2066,-0.2066,-0.2085,-0.2085,-0.2115,-0.2116,-0.2138,-0.2138,0,0,0,0,0,0,0,0,0,0,0,-0.2066,-0.2066,-0.2067,-0.2086,-0.2115,-0.2116,-0.2138,-0.2118,0,0,0,0,0,0,0,0,0,0,-0.2091,-0.2077,-0.2066,-0.2067,-0.2086,-0.2115,-0.2116,-0.2118,-0.212,-0.2121,0,-0.2123,0,-0.2136,-0.214,-0.214,0,0,0,-0.2082,-0.2075,-0.2086,-0.2067,-0.2086,-0.2115,-0.2101,-0.2119,-0.2121,-0.2124,-0.2124,-0.2125,-0.2136,-0.214,-0.214,-0.2186,-0.2186,0,0,-0.208,-0.207,-0.2084,-0.2087,-0.209,-0.21,-0.2102,-0.212,-0.2119,-0.2124,-0.2126,-0.2137,-0.214,-0.214,-0.2185,-0.2186,0,0,0,-0.2078,-0.2068,-0.2079,-0.2086,-0.2096,-0.2101,-0.2103,-0.2118,-0.2122,-0.2126,-0.2137,-0.214,-0.214,-0.2185,-0.2185,-0.2214,0,0,0,-0.2077,-0.2068,-0.2078,-0.2072,-0.2095,-0.211,-0.21,-0.2121,-0.2124,-0.2137,-0.214,-0.2141,-0.2185,-0.2185,-0.2212,-0.2207,0,0,0,-0.2066,-0.2067,-0.207,-0.2072,-0.2088,-0.211,-0.2115,-0.2122,-0.2131,-0.214,-0.2141,-0.2184,-0.2185,-0.2211,-0.2205,-0.2173,0,0,0,-0.2055,-0.2063,-0.2069,-0.2091,-0.2087,-0.2132,-0.2115,-0.2141,-0.2152,-0.214,-0.2185,-0.2185,-0.221,-0.2204,-0.2173,-0.1971,-0.1957,0,0,-0.2062,-0.2064,-0.2081,-0.2088,-0.2132,-0.2127,-0.2171,-0.2171,-0.2163,-0.2176,-0.2177,-0.2213,-0.2205,-0.2173,-0.2018,-0.2001,0,0,0,-0.2083,-0.2091,-0.2108,-0.2133,-0.2164,-0.2184,-0.2195,-0.2197,-0.2206,-0.2174,-0.2221,-0.2215,-0.2194,-0.2072,-0.206,-0.2189,-0.2189,-0.2189,-0.2189,-0.2058,-0.2094,-0.2124,-0.2165,-0.2195,-0.2227,-0.2238,-0.2239,-0.224,-0.2247,-0.2245,-0.2249,-0.2122,-0.211,-0.2263,-0.2263,-0.2263,-0.2263,-0.2263,-0.2067,-0.2066,-0.213,-0.2172,-0.2208,-0.2244,-0.2274,-0.2275,-0.2273,-0.2278,-0.2256,-0.2118,-0.2097,-0.2265,-0.2265,-0.2265,-0.2264,-0.2264,-0.2264,-0.2042,-0.2032,-0.2091,-0.2138,-0.2192,-0.2241,-0.2256,-0.2282,-0.228,-0.2276,-0.2107,-0.2104,-0.2235,-0.2258,-0.2258,-0.2258,-0.2258,-0.2258,-0.2258,-0.1946,-0.2002,-0.2,-0.2091,-0.2108,-0.2168,-0.2236,-0.222,-0.214,-0.2103,-0.2101,-0.2246,-0.2246,-0.2234,-0.2256,-0.2256,-0.2256,-0.2257,-0.2257,-0.1818,-0.1853,-0.1856,-0.1875,-0.194,-0.193,-0.2078,-0.2009,-0.1998,-0.1906,-0.1987,-0.1994,-0.1951,-0.1958,-0.1938,-0.1882,-0.1882,-0.1882,-0.1882,-0.1677,-0.1714,-0.1662,-0.167,-0.1705,-0.1794,-0.1698,-0.1689,-0.1693,-0.1623,-0.1635,-0.1603,-0.1622,-0.1561,-0.1578,-0.155,-0.1394,-0.1393,-0.1393,-0.1523,-0.1562,-0.1478,-0.1549,-0.158,-0.1599,-0.1438,-0.1318,-0.1235,-0.1381,-0.1631,-0.1834,-0.1817,-0.1836,-0.1767,-0.1784,-0.175,0,0]},{"header":{"parameterUnit":"m.s-1","parameterCategory":2,"la1":30.2992,"la2":30.254,"lo1":-89.0895,"lo2":-89.0443,"dy":0.0025,"dx":0.0025,"nx":19,"ny":19,"refTime":"2026-05-05T21:00:00:Z","depth":"2","parameterNumber":3,"parameterNumberName":"V-component_of_CURRENTS"},"data":[0,0,0,-0.0433,-0.0431,-0.034,-0.0339,-0.0195,-0.0194,0,0,0,0,0,0,0,0,0,0,0,-0.0467,-0.0466,-0.0433,-0.0431,-0.034,-0.0339,-0.0195,-0.0194,0,0,0,0,0,0,0,0,0,0,0,-0.0467,-0.0466,-0.0466,-0.0431,-0.034,-0.0339,-0.0195,-0.0268,0,0,0,0,0,0,0,0,0,0,-0.0359,-0.0405,-0.0467,-0.0466,-0.0431,-0.034,-0.0339,-0.0272,-0.0263,-0.0232,0,-0.0228,0,-0.0211,-0.0184,-0.0184,0,0,0,-0.0418,-0.0412,-0.0383,-0.0466,-0.043,-0.034,-0.0377,-0.0267,-0.0258,-0.0221,-0.0226,-0.022,-0.0208,-0.0184,-0.0183,-0.0091,-0.0092,0,0,-0.0423,-0.0449,-0.039,-0.0378,-0.0417,-0.038,-0.0375,-0.0262,-0.0259,-0.0225,-0.0217,-0.0206,-0.0183,-0.0182,-0.0091,-0.0091,0,0,0,-0.0447,-0.0453,-0.0427,-0.0384,-0.0371,-0.0378,-0.0372,-0.0264,-0.0254,-0.0215,-0.0204,-0.0182,-0.018,-0.0091,-0.0091,-0.017,0,0,0,-0.0449,-0.0467,-0.0429,-0.0444,-0.0374,-0.0322,-0.0377,-0.0262,-0.0249,-0.0205,-0.0182,-0.0179,-0.0091,-0.0091,-0.0168,-0.0202,0,0,0,-0.0469,-0.0469,-0.0461,-0.0445,-0.0411,-0.0323,-0.0307,-0.0259,-0.0242,-0.0184,-0.0178,-0.0091,-0.0091,-0.0166,-0.0199,-0.0151,0,0,0,-0.0493,-0.0503,-0.0462,-0.047,-0.0412,-0.0375,-0.0307,-0.027,-0.0228,-0.0181,-0.0091,-0.0091,-0.0165,-0.0196,-0.015,-0.0127,-0.013,0,0,-0.0523,-0.0508,-0.0513,-0.0474,-0.0469,-0.0386,-0.0363,-0.0279,-0.0214,-0.0124,-0.0122,-0.0168,-0.0198,-0.0151,-0.013,-0.0133,0,0,0,-0.0533,-0.0542,-0.0532,-0.0518,-0.0471,-0.0425,-0.0339,-0.0289,-0.021,-0.019,-0.0147,-0.0163,-0.013,-0.0114,-0.0116,-0.0092,-0.0092,-0.0092,-0.0092,-0.0605,-0.0582,-0.0597,-0.0563,-0.0531,-0.0444,-0.0395,-0.0305,-0.0244,-0.022,-0.0212,-0.021,-0.0195,-0.0196,-0.0192,-0.0192,-0.0193,-0.0193,-0.0193,-0.0673,-0.0706,-0.065,-0.0659,-0.0595,-0.0561,-0.0435,-0.0381,-0.0279,-0.0251,-0.0215,-0.018,-0.0203,-0.0199,-0.0198,-0.0197,-0.0196,-0.0196,-0.0196,-0.0742,-0.0767,-0.0744,-0.0758,-0.0723,-0.0639,-0.0577,-0.0472,-0.0347,-0.0323,-0.023,-0.0228,-0.0239,-0.0283,-0.0283,-0.0283,-0.0283,-0.0283,-0.0283,-0.086,-0.084,-0.0901,-0.0871,-0.0893,-0.0836,-0.0659,-0.057,-0.04,-0.03,-0.0299,-0.0238,-0.0236,-0.0241,-0.0282,-0.0282,-0.0282,-0.0282,-0.0282,-0.103,-0.1009,-0.1093,-0.113,-0.1138,-0.1112,-0.0906,-0.0614,-0.0447,-0.0351,-0.0255,-0.0256,-0.0211,-0.0208,-0.0211,-0.0242,-0.0242,-0.0242,-0.0242,-0.117,-0.1158,-0.1278,-0.1345,-0.138,-0.1249,-0.1097,-0.0771,-0.044,-0.0299,-0.0297,-0.0304,-0.0304,-0.0264,-0.026,-0.0263,-0.0308,-0.0308,-0.0308,-0.1321,-0.1316,-0.1413,-0.1418,-0.1486,-0.1386,-0.1242,-0.0863,-0.04,-0.0315,-0.0353,-0.0237,-0.0241,-0.0243,-0.0174,-0.0171,-0.0172,0,0]}],[{"header":{"parameterUnit":"m.s-1","parameterCategory":2,"la1":30.2992,"la2":30.254,"lo1":-89.0895,"lo2":-89.0443,"dy":0.0025,"dx":0.0025,"nx":19,"ny":19,"refTime":"2026-05-05T21:00:00:Z","depth":"4","parameterNumber":2,"parameterNumberName":"U-component_of_CURRENTS"},"data":[0,0,0,-0.1575,-0.1577,-0.1697,-0.1697,-0.1783,-0.1783,0,0,0,0,0,0,0,0,0,0,0,-0.1536,-0.1537,-0.1575,-0.1578,-0.1697,-0.1697,-0.1783,-0.1783,0,0,0,0,0,0,0,0,0,0,0,-0.1536,-0.1537,-0.1538,-0.1578,-0.1697,-0.1697,-0.1783,-0.171,0,0,0,0,0,0,0,0,0,0,-0.1603,-0.1583,-0.1536,-0.1538,-0.1579,-0.1696,-0.1697,-0.1708,-0.1715,-0.1708,0,-0.1731,0,-0.1755,-0.1787,-0.1787,0,0,0,-0.1582,-0.1578,-0.1601,-0.1538,-0.158,-0.1696,-0.1644,-0.1712,-0.172,-0.1717,-0.1732,-0.1736,-0.1757,-0.1787,-0.1788,-0.1855,-0.1856,0,0,-0.1575,-0.1565,-0.1595,-0.1606,-0.1615,-0.164,-0.1648,-0.1718,-0.1731,-0.1733,-0.1739,-0.1758,-0.1788,-0.1788,-0.1855,-0.1856,0,0,0,-0.1554,-0.1561,-0.1584,-0.1602,-0.1627,-0.1644,-0.1652,-0.1729,-0.1734,-0.174,-0.1759,-0.1788,-0.1789,-0.1855,-0.1855,-0.1873,0,0,0,-0.155,-0.1548,-0.1581,-0.1577,-0.1626,-0.1691,-0.1661,-0.173,-0.1738,-0.1759,-0.1788,-0.1789,-0.1854,-0.1855,-0.1872,-0.1853,0,0,0,-0.153,-0.1546,-0.1559,-0.1576,-0.1625,-0.169,-0.1701,-0.1733,-0.1749,-0.1787,-0.179,-0.1854,-0.1855,-0.1871,-0.1852,-0.1815,0,0,0,-0.1516,-0.1536,-0.1559,-0.1596,-0.1624,-0.1693,-0.1701,-0.1762,-0.1798,-0.1788,-0.1855,-0.1855,-0.1871,-0.1852,-0.1815,-0.1598,0,0,0,-0.1526,-0.1537,-0.1558,-0.1581,-0.164,-0.1677,-0.1742,-0.1791,-0.1803,-0.1826,-0.1829,-0.1872,-0.1852,-0.1815,-0.1645,0,0,0,0,-0.1552,-0.1566,-0.159,-0.1635,-0.1686,-0.1735,-0.1793,-0.1811,-0.1854,-0.1828,-0.1883,-0.1869,-0.1844,-0.172,-0.1859,-0.1859,-0.1859,-0.1859,-0.1859,-0.1543,-0.1576,-0.1614,-0.1663,-0.1711,-0.1784,-0.1817,-0.185,-0.1874,-0.1895,-0.1893,-0.1886,-0.1759,-0.1917,-0.1917,-0.1917,-0.1917,-0.1917,-0.1917,-0.1542,-0.1542,-0.1617,-0.1664,-0.1725,-0.1786,-0.1845,-0.187,-0.1888,-0.1914,-0.189,-0.176,-0.1919,-0.1919,-0.1918,-0.1918,-0.1918,-0.1918,-0.1918,-0.1509,-0.1501,-0.1569,-0.1624,-0.1701,-0.1777,-0.1789,-0.1849,-0.1883,-0.188,-0.1721,-0.1876,-0.1861,-0.187,-0.187,-0.187,-0.187,-0.187,-0.187,-0.1409,-0.147,-0.148,-0.1569,-0.1601,-0.1662,-0.1751,-0.1741,-0.1789,-0.1692,-0.1874,-0.1869,-0.187,-0.1857,-0.1866,-0.1867,-0.1867,-0.1867,-0.1868,-0.128,-0.1326,-0.1331,-0.136,-0.1423,-0.1462,-0.1593,-0.1555,-0.1514,-0.1448,-0.1577,-0.1593,-0.155,-0.1559,-0.1533,-0.1446,-0.1443,-0.144,0,-0.1159,-0.1191,-0.1168,-0.1174,-0.1172,-0.1318,-0.1238,-0.1281,-0.132,-0.1283,-0.1499,-0.1647,-0.1657,-0.1613,-0.1616,-0.1586,0,0,0,-0.1031,-0.1065,-0.1004,-0.106,-0.105,-0.1094,-0.1212,-0.1162,-0.1345,-0.1243,-0.1369,-0.1388,-0.1677,-0.1856,-0.1826,-0.1828,-0.1803,0,0]},{"header":{"parameterUnit":"m.s-1","parameterCategory":2,"la1":30.2992,"la2":30.254,"lo1":-89.0895,"lo2":-89.0443,"dy":0.0025,"dx":0.0025,"nx":19,"ny":19,"refTime":"2026-05-05T21:00:00:Z","depth":"4","parameterNumber":3,"parameterNumberName":"V-component_of_CURRENTS"},"data":[0,0,0,-0.0305,-0.0305,-0.0254,-0.0254,-0.0154,-0.0153,0,0,0,0,0,0,0,0,0,0,0,-0.0326,-0.0326,-0.0305,-0.0305,-0.0254,-0.0254,-0.0154,-0.0153,0,0,0,0,0,0,0,0,0,0,0,-0.0326,-0.0326,-0.0326,-0.0305,-0.0254,-0.0254,-0.0154,-0.0198,0,0,0,0,0,0,0,0,0,0,-0.0251,-0.0284,-0.0326,-0.0326,-0.0304,-0.0255,-0.0254,-0.0201,-0.0195,-0.0169,0,-0.0172,0,-0.0162,-0.0146,-0.0146,0,0,0,-0.0294,-0.0289,-0.0271,-0.0325,-0.0304,-0.0255,-0.0274,-0.0198,-0.0192,-0.0162,-0.017,-0.0167,-0.0161,-0.0146,-0.0145,-0.0098,-0.0098,0,0,-0.0297,-0.0316,-0.0275,-0.0267,-0.0303,-0.0276,-0.0273,-0.0195,-0.0195,-0.017,-0.0164,-0.0159,-0.0145,-0.0144,-0.0097,-0.0098,0,0,0,-0.0312,-0.0318,-0.0302,-0.0271,-0.0267,-0.0275,-0.0271,-0.0199,-0.0193,-0.0163,-0.0158,-0.0144,-0.0143,-0.0097,-0.0098,-0.0179,0,0,0,-0.0313,-0.0327,-0.0304,-0.0315,-0.0269,-0.0239,-0.0277,-0.0198,-0.0189,-0.0158,-0.0144,-0.0142,-0.0097,-0.0097,-0.0177,-0.0221,0,0,0,-0.0326,-0.0329,-0.0326,-0.0316,-0.0298,-0.024,-0.0229,-0.0196,-0.0186,-0.0146,-0.0142,-0.0097,-0.0097,-0.0174,-0.0216,-0.0213,0,0,0,-0.0342,-0.0355,-0.0327,-0.0342,-0.0299,-0.0287,-0.023,-0.0211,-0.0183,-0.0144,-0.0097,-0.0098,-0.0173,-0.0213,-0.0211,-0.023,0,0,0,-0.0369,-0.0359,-0.0369,-0.0342,-0.0356,-0.0292,-0.0297,-0.0234,-0.0179,-0.0117,-0.0116,-0.0177,-0.0216,-0.0212,-0.0259,0,0,0,0,-0.0384,-0.0397,-0.0395,-0.0397,-0.0369,-0.0354,-0.0291,-0.0257,-0.0206,-0.0166,-0.0165,-0.0186,-0.0181,-0.0185,-0.01,-0.01,-0.01,-0.01,-0.01,-0.0451,-0.0439,-0.0467,-0.0454,-0.0442,-0.0392,-0.037,-0.0309,-0.0249,-0.024,-0.0243,-0.0286,-0.0294,-0.0226,-0.0226,-0.0227,-0.0227,-0.0227,-0.0227,-0.0518,-0.0552,-0.0528,-0.0553,-0.0525,-0.0518,-0.0442,-0.0399,-0.0348,-0.0302,-0.0292,-0.0261,-0.0235,-0.0234,-0.0233,-0.0232,-0.0231,-0.0231,-0.023,-0.0578,-0.0601,-0.0604,-0.0646,-0.0654,-0.0608,-0.0599,-0.0523,-0.0428,-0.0425,-0.0382,-0.0328,-0.033,-0.0405,-0.0405,-0.0405,-0.0405,-0.0405,-0.0406,-0.066,-0.0665,-0.0732,-0.0752,-0.0791,-0.0784,-0.0695,-0.064,-0.0533,-0.0478,-0.0439,-0.0345,-0.0339,-0.0338,-0.0409,-0.0408,-0.0408,-0.0407,-0.0407,-0.0772,-0.0776,-0.0865,-0.0918,-0.0976,-0.0954,-0.0868,-0.0694,-0.0642,-0.0564,-0.0484,-0.048,-0.0444,-0.0435,-0.0436,-0.0538,-0.0539,-0.0539,0,-0.0862,-0.0867,-0.0981,-0.1056,-0.1109,-0.1043,-0.0961,-0.0836,-0.0672,-0.0677,-0.0659,-0.0578,-0.0571,-0.0538,-0.0531,-0.0538,0,0,0,-0.0955,-0.0962,-0.1041,-0.1081,-0.1147,-0.1013,-0.0918,-0.085,-0.0711,-0.0611,-0.0552,-0.0549,-0.0497,-0.0418,-0.035,-0.0343,-0.0337,0,0]}]]